Weather History for Lee's Summit, MO

Change the Weather History Date:

Tuesday, July 9, 2013

  Actual Average (KMKC) Record (KMKC)
Temperature  
Mean Temperature 87 °F -  
Max Temperature 96 °F 86 °F 99 °F (2013)
Min Temperature 78 °F 69 °F 68 °F (1996)
Cooling Degree Days 22    
Growing Degree Days 37 (Base 50)    
Moisture  
Dew Point 70 °F    
Average Humidity 58    
Maximum Humidity 71    
Minimum Humidity 43    
Precipitation  
Precipitation 0.00 in - - ()
Sea Level Pressure  
Sea Level Pressure 29.93 in    
Wind  
Wind Speed 10 mph (SSW)    
Max Wind Speed 14 mph    
Max Gust Speed 23 mph    
Visibility 10 miles    
Events      
Averages and records for this station are not official NWS values.
T = Trace of Precipitation, MM = Missing Value Source: NWS Daily Summary

Daily Weather History Graph

Daily Weather History Graph

Search for Another Location

Airport:

Trip Planner

Search our weather history database for the weather conditions in past years. The results will help you decide how hot, cold, wet, or windy it might be!

Date:

Astronomy

Jul. 09, 2013 Rise Set
Actual Time 6:00 AM CDT 8:44 PM CDT
Civil Twilight 5:28 AM CDT 9:16 PM CDT
Nautical Twilight 4:49 AM CDT 9:55 PM CDT
Astronomical Twilight 4:04 AM CDT 10:40 PM CDT
Moon 7:24 AM CDT (7/9) 9:24 PM CDT (7/9)
Length of Visible Light 15h 47m
Length of Day
14h 44m
New Moon, 2% of the Moon is Illuminated
Jul 9
New Moon
Jul 15
First Quarter
Jul 22
Full
Jul 29
Last Quarter
Aug 6
New

Hourly Weather History & Observations

Time (CDT) Temp. Heat Index Dew Point Humidity Pressure Visibility Wind Dir Wind Speed Gust Speed Precip Events Conditions
12:53 AM 82.0 °F 84.1 °F 66.0 °F 58% 29.97 in 10.0 mi SSW 10.4 mph - N/A   Clear
1:53 AM 80.1 °F 82.1 °F 66.0 °F 62% 29.97 in 10.0 mi South 6.9 mph - N/A   Clear
2:53 AM 81.0 °F 83.0 °F 66.0 °F 60% 29.97 in 10.0 mi SSW 10.4 mph - N/A   Clear
3:53 AM 80.1 °F 82.3 °F 66.9 °F 64% 29.96 in 10.0 mi SSW 9.2 mph - N/A   Clear
4:53 AM 78.1 °F - 66.9 °F 68% 29.97 in 10.0 mi SSW 10.4 mph - N/A   Clear
5:53 AM 78.1 °F - 68.0 °F 71% 29.98 in 10.0 mi SW 11.5 mph - N/A   Clear
6:53 AM 78.1 °F - 68.0 °F 71% 30.00 in 10.0 mi SW 6.9 mph - N/A   Clear
7:53 AM 80.1 °F 82.9 °F 69.1 °F 69% 29.99 in 10.0 mi SSW 6.9 mph - N/A   Clear
8:53 AM 82.0 °F 85.5 °F 69.1 °F 65% 29.98 in 10.0 mi SSW 11.5 mph - N/A   Clear
9:53 AM 82.9 °F 87.5 °F 71.1 °F 67% 29.96 in 10.0 mi South 11.5 mph - N/A   Clear
10:53 AM 84.9 °F 90.1 °F 71.1 °F 63% 29.96 in 10.0 mi SSW 9.2 mph - N/A   Clear
11:53 AM 84.0 °F 89.6 °F 72.0 °F 67% 29.96 in 10.0 mi South 8.1 mph - N/A   Clear
12:53 PM 91.0 °F 100.4 °F 73.9 °F 57% 29.95 in 10.0 mi South 6.9 mph 16.1 mph N/A   Clear
1:53 PM 93.0 °F 101.9 °F 73.0 °F 52% 29.93 in 10.0 mi SSW 9.2 mph - N/A   Clear
2:53 PM 93.9 °F 100.8 °F 71.1 °F 47% 29.91 in 10.0 mi South 10.4 mph 18.4 mph N/A   Clear
3:53 PM 95.0 °F 102.5 °F 71.1 °F 46% 29.90 in 10.0 mi SSW 12.7 mph 21.9 mph N/A   Clear
4:53 PM 96.1 °F 102.9 °F 70.0 °F 43% 29.88 in 10.0 mi South 11.5 mph 21.9 mph N/A   Clear
5:53 PM 96.1 °F 102.9 °F 70.0 °F 43% 29.86 in 10.0 mi SSW 13.8 mph 23.0 mph N/A   Clear
6:53 PM 93.9 °F 100.3 °F 70.0 °F 46% 29.86 in 10.0 mi South 11.5 mph 18.4 mph N/A   Clear
7:53 PM 93.0 °F 99.0 °F 70.0 °F 47% 29.84 in 10.0 mi South 5.8 mph 17.3 mph N/A   Clear
8:53 PM 91.0 °F 96.6 °F 70.0 °F 50% 29.85 in 10.0 mi South 10.4 mph - N/A   Clear
9:53 PM 89.1 °F 93.7 °F 69.1 °F 52% 29.87 in 10.0 mi South 8.1 mph - N/A   Clear
10:53 PM 88.0 °F 92.9 °F 70.0 °F 55% 29.88 in 10.0 mi SSW 10.4 mph 18.4 mph N/A   Clear
11:53 PM 86.0 °F 90.7 °F 70.0 °F 59% 29.89 in 10.0 mi SSW 11.5 mph - N/A   Clear